This is the latest recevied weather packets stored in our database for station/object KE5VT. If no packets are shown the sender has not sent any weather packets the latest 10 day(s).
| Time | Temp. | Humidity | Pressure | Rain* | Wind** | Luminosity | Snow |
|---|---|---|---|---|---|---|---|
| 1777650941 | 13.89° C | 60% | 1011.7 hPa | 0 mm | - | 133 W/m² | - |
| 1777650639 | 13.89° C | 61% | 1012 hPa | 0 mm | - | 107 W/m² | - |
| 1777650336 | 13.89° C | 61% | 1011.8 hPa | 0 mm | - | 85 W/m² | - |
| 1777650033 | 13.89° C | 62% | 1011.9 hPa | 0 mm | - | 104 W/m² | - |
| 1777649730 | 13.89° C | 60% | 1011.9 hPa | 0 mm | - | 139 W/m² | - |
| 1777649427 | 13.89° C | 60% | 1011.8 hPa | 0 mm | - | 196 W/m² | - |
| 1777649123 | 13.33° C | 61% | 1011.6 hPa | 0 mm | - | 165 W/m² | - |
| 1777648821 | 13.33° C | 61% | 1011.7 hPa | 0 mm | - | 129 W/m² | - |
| 1777648518 | 13.33° C | 61% | 1012 hPa | 0 mm | - | 88 W/m² | - |
| 1777648215 | 13.33° C | 60% | 1011.6 hPa | 0 mm | - | 113 W/m² | - |
| 1777647909 | 13.33° C | 60% | 1011.5 hPa | 0 mm | - | 182 W/m² | - |
| 1777647607 | 13.33° C | 63% | 1011.7 hPa | 0 mm | - | 152 W/m² | - |
| 1777647303 | 13.33° C | 60% | 1012 hPa | 0 mm | - | 121 W/m² | - |
| 1777647001 | 13.33° C | 62% | 1011.8 hPa | 0 mm | - | 111 W/m² | - |
| 1777646696 | 13.33° C | 62% | 1011.7 hPa | 0 mm | - | 135 W/m² | - |
| 1777646392 | 13.33° C | 61% | 1012 hPa | 0 mm | - | 124 W/m² | - |
| 1777646089 | 13.33° C | 61% | 1012 hPa | 0 mm | - | 133 W/m² | - |
| 1777645785 | 13.33° C | 60% | 1012 hPa | 0 mm | - | 76 W/m² | - |
| 1777645483 | 12.78° C | 60% | 1011.8 hPa | 0 mm | - | 110 W/m² | - |
| 1777645178 | 12.78° C | 59% | 1011.8 hPa | 0 mm | - | 119 W/m² | - |
| 1777644875 | 12.78° C | 60% | 1011.7 hPa | 0 mm | - | 98 W/m² | - |
| 1777644573 | 12.78° C | 59% | 1011.6 hPa | 0 mm | - | 152 W/m² | - |
| 1777644268 | 12.78° C | 61% | 1011.6 hPa | 0 mm | - | 81 W/m² | - |
| 1777643965 | 12.78° C | 61% | 1011.7 hPa | 0 mm | - | 75 W/m² | - |
| 1777643662 | 12.78° C | 59% | 1011.6 hPa | 0 mm | - | 78 W/m² | - |
* Rain latest hour (hover to see other rain measurements)
** Current wind speed in m/s (hover to see current wind gust speed)